User: anonymous   Login
Location: Buckland
(65.9785°N, 161.1281°W)
Time: 23:17:42
(UTC+00:00)
Language:

deb Explorer IX - Orbit

View from above orbital plane
View from above orbital plane
View from above satellite
View from above satellite

Ground track
Ground track

The orbit data is extracted from the following two-line orbital elements,

1 00085U 61004C   21209.98430787  .00005736  00000-0  12239-2 0  9994
2 00085  38.7676 104.9071 0382949 330.4534  27.5060 14.21962208988955
Epoch (UTC): 28 July 2021 23:37:24
Eccentricity: 0.0382949
inclination: 38.7676°
perigee height: 543 km
apogee height: 1094 km
right ascension of ascending node: 104.9071°
argument of perigee: 330.4534°
revolutions per day: 14.21962208
mean anomaly at epoch: 27.5060°
orbit number at epoch: 98895

The dashed part of the orbit path shows where the satellite is in the earth's shadow,  

DLR